Погода в Быстрой

Россия / Иркутская область     51°44′28″N   103°26′20″E
темп.,
°C
ветер,
м/с
пор.,
м/с
влажн.,
%
обл.,
%
осадки,
мм/ч
давл.,
гПа
погр.,
м
21 января, чт
чт2123:00−21ссв1198100 0.1 102921
02:00−23св1199100 0.1 103220
05:00−25ссз009795 0.0 103120
08:00−25зсз119362 0.0 103220
11:00−20з118812 0.0 103060
14:00−14зсз01756 0.0 1027205
17:00−17ююв119325 0.0 102522
20:00−17юз118947 0.0 102520
22 января, пт
пт2223:00−16зюз227887 0.0 102322
02:00−14зюз227887 0.0 102136
05:00−15зюз2283100 0.0 102021
08:00−15зюз128081 0.0 102020
11:00−10з11790 0.0 101852
14:00−6ююв018422 0.0 1013232
17:00−8ю119388 0.0 101232
20:00−9юз228370 0.0 101226
23 января, сб
сб2323:00−8зюз238298 0.0 101250
02:00−10зюз337975 0.0 101353
05:00−13з228148 0.0 101523
08:00−12зюз117650 0.0 101721
11:00−9с118776 0.0 101994
14:00−7ссв148587 0.3 1020657
17:00−10св1295100 0.4 1024193
20:00−12в1297100 1.1 1028108
24 января, вс
вс2423:00−13с1197100 1.0 102986
02:00−14с0197100 1.9 103046
05:00−15с1197100 0.7 103132
08:00−15с1197100 1.4 103240
11:00−15ссз1193100 0.5 1033223
14:00−13с1190100 0.9 1032367
17:00−14ссв1295100 0.4 1033267
20:00−17с1198100 0.9 103435
25 января, пн
пн2523:00−17ссз1198100 0.6 103434
02:00−18сз1198100 1.1 103345
05:00−18зсз1198100 0.6 103344
08:00−18з1198100 1.0 103334
11:00−17зсз1392100 0.3 1033398
14:00−16сз2584100 0.6 1032887
17:00−16сз1293100 0.2 1033121
20:00−19з1196100 0.3 103623